CW5709 Weather Reports


Display with metric or nautical units.
time (UTC)temp
F
wind
direction
speed
MPH
gust
MPH
rain 1hr
in
rain 24hr
in
rain mn
in
humidity
%
barometer
mb
20260902234534 59 0.0 0.0 0.08 0.44 0.44 94 1008.8
20260902233032 59 0.0 0.0 0.08 0.42 0.42 94 1008.6
20260902231531 59 0.0 0.0 0.08 0.40 0.40 94 1008.6
20260902230004 59 0.0 0.0 0.08 0.38 0.38 94 1008.3
20260902224507 59 0.0 0.0 0.08 0.36 0.36 94 1008.1
20260902223011 59 0.0 0.0 0.08 0.34 0.34 94 1008.0
20260902221517 59 0.0 0.0 0.07 0.32 0.32 94 1007.9
20260902220019 59 0.0 0.0 0.05 0.30 0.30 94 1007.8
20260902214507 59 0.0 0.0 0.03 0.28 0.28 94 1007.7
20260902213008 59 0.0 0.0 0.02 0.26 0.26 94 1007.7
20260902211513 59 0.0 0.0 0.01 0.25 0.25 94 1007.6
20260902210016 59 0.0 0.0 0.02 0.25 0.25 93 1007.6
20260902204518 59 0.0 0.0 0.02 0.25 0.25 93 1007.4
20260902203007 59 0.0 0.0 0.02 0.24 0.24 94 1007.3
20260902201518 59 0.0 0.0 0.02 0.24 0.24 93 1007.2
20260902200021 59 0.0 0.0 0.01 0.23 0.23 93 1007.2
20260902194524 58 0.0 0.0 0.02 0.23 0.23 93 1007.2
20260902193020 58 0.0 0.0 0.02 0.22 0.22 93 1007.3
20260902191513 58 0.0 0.0 0.04 0.22 0.22 93 1007.2
20260902190019 58 0.0 0.0 0.04 0.22 0.22 92 1007.2
20260902184527 57 0.0 0.0 0.05 0.21 0.21 92 1007.3
20260902183024 57 0.0 0.0 0.08 0.20 0.20 91 1007.4
20260902181522 57 0.0 0.0 0.08 0.18 0.18 91 1007.2
20260902180012 57 0.0 0.0 0.09 0.18 0.18 90 1007.1
20260902174519 58 0.0 0.0 0.09 0.16 0.16 89 1007.3
20260902173022 58 0.0 0.0 0.06 0.12 0.12 89 1007.3
20260902171526 58 0.0 0.0 0.06 0.10 0.10 88 1007.5
20260902170027 58 0.0 0.0 0.06 0.09 0.09 87 1007.7
20260902164515 58 0.0 0.0 0.07 0.07 0.07 87 1007.8
20260902163027 58 0.0 0.0 0.06 0.06 0.06 86 1007.8
20260902161535 58 0.0 0.0 0.04 0.04 0.04 85 1007.8
20260902160032 59 0.0 0.0 0.03 0.03 0.03 84 1007.7
20260902154536 59 0.0 0.0 0.00 0.00 0.00 83 1007.7
20260902153020 59 0.0 0.0 0.00 0.00 0.00 82 1007.6
20260902151527 59 0.0 0.0 0.00 0.00 0.00 82 1007.7
20260902150032 58 0.0 0.0 0.00 0.00 0.00 83 1007.8
20260902144531 58 0.0 0.0 0.00 0.00 0.00 84 1007.9
20260902143031 58 0.0 0.0 0.00 0.00 0.00 84 1008.0
20260902141524 58 0.0 0.0 0.00 0.00 0.00 84 1008.1
20260902140028 58 0.0 0.0 0.00 0.00 0.00 84 1008.3
20260902134509 58 0.0 0.0 0.00 0.00 0.00 84 1008.3
20260902133012 58 0.0 0.0 0.00 0.00 0.00 83 1008.5
20260902131520 58 0.0 0.0 0.00 0.00 0.00 83 1008.6
20260902130026 57 0.0 0.0 0.00 0.00 0.00 83 1008.9
20260902124508 57 0.0 0.0 0.00 0.00 0.00 83 1009.0
20260902123012 57 0.0 0.0 0.00 0.00 0.00 83 1009.3
20260902121518 57 0.0 0.0 0.00 0.00 0.00 83 1009.6
20260902120025 57 0.0 0.0 0.00 0.00 0.00 83 1009.7
20260902114556 57 0.0 0.0 0.00 0.00 0.00 82 1009.9
20260902113007 57 0.0 0.0 0.00 0.00 0.00 82 1010.0
20260902111514 58 0.0 0.0 0.00 0.00 0.00 82 1010.3
20260902110021 58 0.0 0.0 0.00 0.00 0.00 82 1010.6
20260902104525 57 0.0 0.0 0.00 0.00 0.00 82 1010.8
20260902103028 57 0.0 0.0 0.00 0.00 0.00 82 1010.9
20260902101508 57 0.0 0.0 0.00 0.00 0.00 82 1011.1
20260902100015 57 0.0 0.0 0.00 0.00 0.00 83 1011.2
20260902094521 57 0.0 0.0 0.00 0.00 0.00 83 1011.1
20260902093027 57 0.0 0.0 0.00 0.00 0.00 83 1011.5
20260902091529 57 0.0 0.0 0.00 0.00 0.00 83 1011.5
20260902090019 56 0.0 0.0 0.00 0.00 0.00 82 1011.7
20260902084519 56 0.0 0.0 0.00 0.00 0.00 82 1011.7
20260902083029 57 0.0 0.0 0.00 0.00 0.00 80 1011.7
20260902081526 57 0.0 0.0 0.00 0.00 0.00 80 1011.8
20260902080034 58 0.0 0.0 0.00 0.00 0.00 80 1011.9
20260902074523 58 0.0 0.0 0.00 0.00 0.00 80 1011.9
20260902073024 58 0.0 0.0 0.00 0.00 0.00 80 1012.1
20260902071527 58 0.0 0.0 0.00 0.00 0.00 79 1012.1
20260902070032 58 0.0 0.0 0.00 0.00 0.00 78 1012.2
20260902064537 58 0.0 0.0 0.00 0.00 0.00 78 1012.4
20260902063021 59 0.0 0.0 0.00 0.00 0.00 78 1012.6
20260902061526 59 0.0 0.0 0.00 0.00 0.00 77 1012.9
20260902060029 59 0.0 0.0 0.00 0.00 0.00 77 1013.0
20260902054539 60 0.0 0.0 0.00 0.00 0.00 76 1013.1
20260902053034 60 0.0 0.0 0.00 0.00 0.00 76 1013.2
20260902051526 61 0.0 0.0 0.00 0.00 0.00 75 1013.0
20260902050037 61 0.0 0.0 0.00 0.00 0.00 75 1013.2
20260902044530 62 0.0 0.0 0.00 0.00 0.00 74 1013.2
20260902043015 62 0.0 0.0 0.00 0.00 0.00 74 1013.0
20260902041524 62 0.0 0.0 0.00 0.00 0.00 73 1013.0
20260902040027 62 0.0 0.0 0.00 0.00 0.00 72 1012.8
20260902034504 62 0.0 0.0 0.00 0.00 0.00 72 1012.6
20260902033011 63 0.0 0.0 0.00 0.00 0.00 71 1012.5
20260902031517 63 0.0 0.0 0.00 0.00 0.00 70 1012.6
20260902030025 63 0.0 0.0 0.00 0.00 0.00 69 1012.7
20260902024536 64 0.0 0.0 0.00 0.00 0.00 68 1012.8
20260902023008 64 0.0 0.0 0.00 0.00 0.00 68 1013.0
20260902021514 64 0.0 0.0 0.00 0.00 0.00 67 1012.9
20260902020017 65 0.0 0.0 0.00 0.00 0.00 68 1012.8
20260902014533 65 0.0 0.0 0.00 0.00 0.00 68 1012.7
20260902013028 65 0.0 0.0 0.00 0.00 0.00 68 1012.5
20260902011508 65 0.0 0.0 0.00 0.00 0.00 68 1012.6
20260902010024 66 0.0 0.0 0.00 0.00 0.00 67 1012.6
20260902004523 66 0.0 0.0 0.00 0.00 0.00 68 1012.5
20260902003029 65 0.0 0.0 0.00 0.00 0.00 68 1012.5
20260902001531 65 0.0 0.0 0.00 0.00 0.00 67 1012.5
20260902000011 66 0.0 0.0 0.00 0.00 0.00 66 1012.4